Location: El Gallo
(32.4380°N, 116.9347°W)
Time: 20:48:57
(UTC+00:00)

BREEZE M DEB (TANK) - Pass Details

Date: 01 October 2022
Orbit: 338 x 13562 km, 49.6° (Epoch: 01 December)

Event Time Altitude Azimuth Distance (km) Brightness Sun altitude
Exits shadow 12:17:55 16° 343° (NNW) 1,164 4.4 -18.5°
Drops below altitude 10° 12:19:58 10° 22° (NNE) 1,763 5.8 -18.1°
Sets 12:23:57 0° 45° (NE) 3,562 7.8 -17.2°
